Year,Month,Day,Hour,Minute,Value (Times are PST for temperature in C)
2018,08,24,00,00,15.60
2018,08,24,00,01,15.50
2018,08,24,00,02,15.50
2018,08,24,00,03,15.50
2018,08,24,00,04,15.50
2018,08,24,00,05,15.40
2018,08,24,00,06,15.40
2018,08,24,00,07,15.40
2018,08,24,00,08,15.40
2018,08,24,00,09,15.40
2018,08,24,00,10,15.30
2018,08,24,00,11,15.30
2018,08,24,00,12,15.30
2018,08,24,00,13,15.30
2018,08,24,00,14,15.30
2018,08,24,00,15,15.20
2018,08,24,00,16,15.20
2018,08,24,00,17,15.20
2018,08,24,00,18,15.20
2018,08,24,00,19,15.20
2018,08,24,00,20,15.10
2018,08,24,00,21,15.10
2018,08,24,00,22,15.10
2018,08,24,00,23,15.10
2018,08,24,00,24,15.10
2018,08,24,00,25,15.00
2018,08,24,00,26,15.00
2018,08,24,00,27,15.00
2018,08,24,00,28,15.00
2018,08,24,00,29,14.90
2018,08,24,00,30,14.90
2018,08,24,00,31,14.90
2018,08,24,00,32,14.90
2018,08,24,00,33,14.80
2018,08,24,00,34,14.80
2018,08,24,00,35,14.80
2018,08,24,00,36,14.80
2018,08,24,00,37,14.70
2018,08,24,00,38,14.70
2018,08,24,00,39,14.70
2018,08,24,00,40,14.60
2018,08,24,00,41,14.60
2018,08,24,00,42,14.60
2018,08,24,00,43,14.50
2018,08,24,00,44,14.50
2018,08,24,00,45,14.40
2018,08,24,00,46,14.40
2018,08,24,00,47,14.40
2018,08,24,00,48,14.30
2018,08,24,00,49,14.30
2018,08,24,00,50,14.30
2018,08,24,00,51,14.20
2018,08,24,00,52,14.20
2018,08,24,00,53,14.20
2018,08,24,00,54,14.20
2018,08,24,00,55,14.20
2018,08,24,00,56,14.20
2018,08,24,00,57,14.10
2018,08,24,00,58,14.10
2018,08,24,00,59,14.10
2018,08,24,01,00,14.10
2018,08,24,01,01,14.10
2018,08,24,01,02,14.00
2018,08,24,01,03,14.00
2018,08,24,01,04,14.00
2018,08,24,01,05,13.90
2018,08,24,01,06,13.90
2018,08,24,01,07,13.90
2018,08,24,01,08,13.90
2018,08,24,01,09,13.80
2018,08,24,01,10,13.80
2018,08,24,01,11,13.80
2018,08,24,01,12,13.80
2018,08,24,01,13,13.80
2018,08,24,01,14,13.70
2018,08,24,01,15,13.70
2018,08,24,01,16,13.70
2018,08,24,01,17,13.70
2018,08,24,01,18,13.60
2018,08,24,01,19,13.60
2018,08,24,01,20,13.50
2018,08,24,01,21,13.50
2018,08,24,01,22,13.40
2018,08,24,01,23,13.40
2018,08,24,01,24,13.40
2018,08,24,01,25,13.30
2018,08,24,01,26,13.30
2018,08,24,01,27,13.30
2018,08,24,01,28,13.20
2018,08,24,01,29,13.20
2018,08,24,01,30,13.10
2018,08,24,01,31,13.10
2018,08,24,01,32,13.00
2018,08,24,01,33,13.00
2018,08,24,01,34,13.00
2018,08,24,01,35,12.90
2018,08,24,01,36,12.90
2018,08,24,01,37,12.90
2018,08,24,01,38,12.90
2018,08,24,01,39,12.80
2018,08,24,01,40,12.80
2018,08,24,01,41,12.80
2018,08,24,01,42,12.70
2018,08,24,01,43,12.70
2018,08,24,01,44,12.70
2018,08,24,01,45,12.70
2018,08,24,01,46,12.60
2018,08,24,01,47,12.60
2018,08,24,01,48,12.50
2018,08,24,01,49,12.50
2018,08,24,01,50,12.40
2018,08,24,01,51,12.40
2018,08,24,01,52,12.40
2018,08,24,01,53,12.40
2018,08,24,01,54,12.30
2018,08,24,01,55,12.30
2018,08,24,01,56,12.30
2018,08,24,01,57,12.30
2018,08,24,01,58,12.30
2018,08,24,01,59,12.30
2018,08,24,02,00,12.20
2018,08,24,02,01,12.20
2018,08,24,02,02,12.20
2018,08,24,02,03,12.20
2018,08,24,02,04,12.20
2018,08,24,02,05,12.20
2018,08,24,02,06,12.20
2018,08,24,02,07,12.20
2018,08,24,02,08,12.20
2018,08,24,02,09,12.20
2018,08,24,02,10,12.20
2018,08,24,02,11,12.20
2018,08,24,02,12,12.20
2018,08,24,02,13,12.20
2018,08,24,02,14,12.20
2018,08,24,02,15,12.20
2018,08,24,02,16,12.10
2018,08,24,02,17,12.10
2018,08,24,02,18,12.10
2018,08,24,02,19,12.10
2018,08,24,02,20,12.10
2018,08,24,02,21,12.10
2018,08,24,02,22,12.10
2018,08,24,02,23,12.10
2018,08,24,02,24,12.10
2018,08,24,02,25,12.10
2018,08,24,02,26,12.00
2018,08,24,02,27,12.00
2018,08,24,02,28,12.00
2018,08,24,02,29,12.00
2018,08,24,02,30,12.00
2018,08,24,02,31,11.90
2018,08,24,02,32,11.90
2018,08,24,02,33,11.90
2018,08,24,02,34,11.90
2018,08,24,02,35,11.90
2018,08,24,02,36,11.90
2018,08,24,02,37,11.80
2018,08,24,02,38,11.90
2018,08,24,02,39,11.80
2018,08,24,02,40,11.80
2018,08,24,02,41,11.80
2018,08,24,02,42,11.80
2018,08,24,02,43,11.70
2018,08,24,02,44,11.70
2018,08,24,02,45,11.70
2018,08,24,02,46,11.70
2018,08,24,02,47,11.70
2018,08,24,02,48,11.70
2018,08,24,02,49,11.70
2018,08,24,02,50,11.70
2018,08,24,02,51,11.70
2018,08,24,02,52,11.70
2018,08,24,02,53,11.70
2018,08,24,02,54,11.60
2018,08,24,02,55,11.60
2018,08,24,02,56,11.60
2018,08,24,02,57,11.60
2018,08,24,02,58,11.60
2018,08,24,02,59,11.50
2018,08,24,03,00,11.50
2018,08,24,03,01,11.50
2018,08,24,03,02,11.50
2018,08,24,03,03,11.40
2018,08,24,03,04,11.40
2018,08,24,03,05,11.40
2018,08,24,03,06,11.40
2018,08,24,03,07,11.40
2018,08,24,03,08,11.40
2018,08,24,03,09,11.40
2018,08,24,03,10,11.40
2018,08,24,03,11,11.40
2018,08,24,03,12,11.30
2018,08,24,03,13,11.30
2018,08,24,03,14,11.30
2018,08,24,03,15,11.30
2018,08,24,03,16,11.30
2018,08,24,03,17,11.30
2018,08,24,03,18,11.30
2018,08,24,03,19,11.30
2018,08,24,03,20,11.30
2018,08,24,03,21,11.30
2018,08,24,03,22,11.30
2018,08,24,03,23,11.30
2018,08,24,03,24,11.30
2018,08,24,03,25,11.20
2018,08,24,03,26,11.20
2018,08,24,03,27,11.20
2018,08,24,03,28,11.20
2018,08,24,03,29,11.20
2018,08,24,03,30,11.20
2018,08,24,03,31,11.20
2018,08,24,03,32,11.10
2018,08,24,03,33,11.10
2018,08,24,03,34,11.10
2018,08,24,03,35,11.10
2018,08,24,03,36,11.10
2018,08,24,03,37,11.10
2018,08,24,03,38,11.00
2018,08,24,03,39,11.00
2018,08,24,03,40,11.00
2018,08,24,03,41,11.00
2018,08,24,03,42,10.90
2018,08,24,03,43,10.90
2018,08,24,03,44,10.90
2018,08,24,03,45,10.90
2018,08,24,03,46,10.90
2018,08,24,03,47,10.80
2018,08,24,03,48,10.80
2018,08,24,03,49,10.80
2018,08,24,03,50,10.80
2018,08,24,03,51,10.80
2018,08,24,03,52,10.80
2018,08,24,03,53,10.80
2018,08,24,03,54,10.80
2018,08,24,03,55,10.80
2018,08,24,03,56,10.80
2018,08,24,03,57,10.80
2018,08,24,03,58,10.80
2018,08,24,03,59,10.80
2018,08,24,04,00,10.80
2018,08,24,04,01,10.80
2018,08,24,04,02,10.80
2018,08,24,04,03,10.70
2018,08,24,04,04,10.70
2018,08,24,04,05,10.70
2018,08,24,04,06,10.70
2018,08,24,04,07,10.70
2018,08,24,04,08,10.70
2018,08,24,04,09,10.70
2018,08,24,04,10,10.70
2018,08,24,04,11,10.70
2018,08,24,04,12,10.70
2018,08,24,04,13,10.60
2018,08,24,04,14,10.60
2018,08,24,04,15,10.60
2018,08,24,04,16,10.60
2018,08,24,04,17,10.60
2018,08,24,04,18,10.60
2018,08,24,04,19,10.50
2018,08,24,04,20,10.50
2018,08,24,04,21,10.50
2018,08,24,04,22,10.40
2018,08,24,04,23,10.40
2018,08,24,04,24,10.40
2018,08,24,04,25,10.30
2018,08,24,04,26,10.30
2018,08,24,04,27,10.30
2018,08,24,04,28,10.30
2018,08,24,04,29,10.30
2018,08,24,04,30,10.30
2018,08,24,04,31,10.30
2018,08,24,04,32,10.30
2018,08,24,04,33,10.30
2018,08,24,04,34,10.20
2018,08,24,04,35,10.20
2018,08,24,04,36,10.20
2018,08,24,04,37,10.20
2018,08,24,04,38,10.20
2018,08,24,04,39,10.20
2018,08,24,04,40,10.20
2018,08,24,04,41,10.20
2018,08,24,04,42,10.20
2018,08,24,04,43,10.20
2018,08,24,04,44,10.20
2018,08,24,04,45,10.20
2018,08,24,04,46,10.20
2018,08,24,04,47,10.20
2018,08,24,04,48,10.10
2018,08,24,04,49,10.10
2018,08,24,04,50,10.10
2018,08,24,04,51,10.10
2018,08,24,04,52,10.00
2018,08,24,04,53,10.00
2018,08,24,04,54,9.90
2018,08,24,04,55,9.90
2018,08,24,04,56,9.80
2018,08,24,04,57,9.80
2018,08,24,04,58,9.80
2018,08,24,04,59,9.80
2018,08,24,05,00,9.70
2018,08,24,05,01,9.70
2018,08,24,05,02,9.70
2018,08,24,05,03,9.70
2018,08,24,05,04,9.70
2018,08,24,05,05,9.70
2018,08,24,05,06,9.70
2018,08,24,05,07,9.70
2018,08,24,05,08,9.70
2018,08,24,05,09,9.70
2018,08,24,05,10,9.70
2018,08,24,05,11,9.70
2018,08,24,05,12,9.70
2018,08,24,05,13,9.70
2018,08,24,05,14,9.70
2018,08,24,05,15,9.70
2018,08,24,05,16,9.70
2018,08,24,05,17,9.70
2018,08,24,05,18,9.60
2018,08,24,05,19,9.60
2018,08,24,05,20,9.60
2018,08,24,05,21,9.60
2018,08,24,05,22,9.60
2018,08,24,05,23,9.60
2018,08,24,05,24,9.60
2018,08,24,05,25,9.60
2018,08,24,05,26,9.60
2018,08,24,05,27,9.60
2018,08,24,05,28,9.60
2018,08,24,05,29,9.60
2018,08,24,05,30,9.60
2018,08,24,05,31,9.60
2018,08,24,05,32,9.60
2018,08,24,05,33,9.60
2018,08,24,05,34,9.60
2018,08,24,05,35,9.60
2018,08,24,05,36,9.60
2018,08,24,05,37,9.60
2018,08,24,05,38,9.60
2018,08,24,05,39,9.60
2018,08,24,05,40,9.60
2018,08,24,05,41,9.60
2018,08,24,05,42,9.60
2018,08,24,05,43,9.60
2018,08,24,05,44,9.60
2018,08,24,05,45,9.60
2018,08,24,05,46,9.60
2018,08,24,05,47,9.60
2018,08,24,05,48,9.60
2018,08,24,05,49,9.60
2018,08,24,05,50,9.60
2018,08,24,05,51,9.60
2018,08,24,05,52,9.60
2018,08,24,05,53,9.60
2018,08,24,05,54,9.60
2018,08,24,05,55,9.60
2018,08,24,05,56,9.50
2018,08,24,05,57,9.50
2018,08,24,05,58,9.50
2018,08,24,05,59,9.50
2018,08,24,06,00,9.50
2018,08,24,06,01,9.50
2018,08,24,06,02,9.40
2018,08,24,06,03,9.40
2018,08,24,06,04,9.40
2018,08,24,06,05,9.40
2018,08,24,06,06,9.40
2018,08,24,06,07,9.40
2018,08,24,06,08,9.40
2018,08,24,06,09,9.40
2018,08,24,06,10,9.40
2018,08,24,06,11,9.40
2018,08,24,06,12,9.40
2018,08,24,06,13,9.40
2018,08,24,06,14,9.40
2018,08,24,06,15,9.40
2018,08,24,06,16,9.40
2018,08,24,06,17,9.40
2018,08,24,06,18,9.40
2018,08,24,06,19,9.40
2018,08,24,06,20,9.40
2018,08,24,06,21,9.40
2018,08,24,06,22,9.30
2018,08,24,06,23,9.30
2018,08,24,06,24,9.30
2018,08,24,06,25,9.30
2018,08,24,06,26,9.30
2018,08,24,06,27,9.30
2018,08,24,06,28,9.30
2018,08,24,06,29,9.30
2018,08,24,06,30,9.20
2018,08,24,06,31,9.20
2018,08,24,06,32,9.20
2018,08,24,06,33,9.20
2018,08,24,06,34,9.20
2018,08,24,06,35,9.20
2018,08,24,06,36,9.20
2018,08,24,06,37,9.20
2018,08,24,06,38,9.20
2018,08,24,06,39,9.20
2018,08,24,06,40,9.20
2018,08,24,06,41,9.20
2018,08,24,06,42,9.20
2018,08,24,06,43,9.20
2018,08,24,06,44,9.20
2018,08,24,06,45,9.20
2018,08,24,06,46,9.20
2018,08,24,06,47,9.20
2018,08,24,06,48,9.20
2018,08,24,06,49,9.20
2018,08,24,06,50,9.20
2018,08,24,06,51,9.20
2018,08,24,06,52,9.20
2018,08,24,06,53,9.20
2018,08,24,06,54,9.20
2018,08,24,06,55,9.30
2018,08,24,06,56,9.30
2018,08,24,06,57,9.30
2018,08,24,06,58,9.30
2018,08,24,06,59,9.30
2018,08,24,07,00,9.30
2018,08,24,07,01,9.30
2018,08,24,07,02,9.40
2018,08,24,07,03,9.40
2018,08,24,07,04,9.40
2018,08,24,07,05,9.40
2018,08,24,07,06,9.40
2018,08,24,07,07,9.40
2018,08,24,07,08,9.40
2018,08,24,07,09,9.50
2018,08,24,07,10,9.50
2018,08,24,07,11,9.60
2018,08,24,07,12,9.60
2018,08,24,07,13,9.60
2018,08,24,07,14,9.60
2018,08,24,07,15,9.70
2018,08,24,07,16,9.70
2018,08,24,07,17,9.70
2018,08,24,07,18,9.70
2018,08,24,07,19,9.70
2018,08,24,07,20,9.80
2018,08,24,07,21,9.80
2018,08,24,07,22,9.80
2018,08,24,07,23,9.90
2018,08,24,07,24,9.90
2018,08,24,07,25,9.90
2018,08,24,07,26,10.00
2018,08,24,07,27,10.10
2018,08,24,07,28,10.10
2018,08,24,07,29,10.10
2018,08,24,07,30,10.20
2018,08,24,07,31,10.20
2018,08,24,07,32,10.30
2018,08,24,07,33,10.30
2018,08,24,07,34,10.30
2018,08,24,07,35,10.40
2018,08,24,07,36,10.40
2018,08,24,07,37,10.40
2018,08,24,07,38,10.50
2018,08,24,07,39,10.60
2018,08,24,07,40,10.60
2018,08,24,07,41,10.70
2018,08,24,07,42,10.70
2018,08,24,07,43,10.70
2018,08,24,07,44,10.80
2018,08,24,07,45,10.80
2018,08,24,07,46,10.90
2018,08,24,07,47,10.90
2018,08,24,07,48,11.00
2018,08,24,07,49,11.10
2018,08,24,07,50,11.10
2018,08,24,07,51,11.20
2018,08,24,07,52,11.30
2018,08,24,07,53,11.40
2018,08,24,07,54,11.50
2018,08,24,07,55,11.50
2018,08,24,07,56,11.60
2018,08,24,07,57,11.70
2018,08,24,07,58,11.70
2018,08,24,07,59,11.80
2018,08,24,08,00,11.90
2018,08,24,08,01,11.90
2018,08,24,08,02,12.00
2018,08,24,08,03,12.10
2018,08,24,08,04,12.10
2018,08,24,08,05,12.20
2018,08,24,08,06,12.30
2018,08,24,08,07,12.30
2018,08,24,08,08,12.40
2018,08,24,08,09,12.50
2018,08,24,08,10,12.50
2018,08,24,08,11,12.60
2018,08,24,08,12,12.70
2018,08,24,08,13,12.70
2018,08,24,08,14,12.80
2018,08,24,08,15,12.90
2018,08,24,08,16,13.00
2018,08,24,08,17,13.00
2018,08,24,08,18,13.10
2018,08,24,08,19,13.20
2018,08,24,08,20,13.30
2018,08,24,08,21,13.40
2018,08,24,08,22,13.50
2018,08,24,08,23,13.50
2018,08,24,08,24,13.60
2018,08,24,08,25,13.70
2018,08,24,08,26,13.80
2018,08,24,08,27,13.80
2018,08,24,08,28,13.90
2018,08,24,08,29,13.90
2018,08,24,08,30,14.00
2018,08,24,08,31,14.00
2018,08,24,08,32,14.10
2018,08,24,08,33,14.10
2018,08,24,08,34,14.20
2018,08,24,08,35,14.20
2018,08,24,08,36,14.30
2018,08,24,08,37,14.30
2018,08,24,08,38,14.40
2018,08,24,08,39,14.50
2018,08,24,08,40,14.60
2018,08,24,08,41,14.60
2018,08,24,08,42,14.70
2018,08,24,08,43,14.80
2018,08,24,08,44,14.80
2018,08,24,08,45,14.90
2018,08,24,08,46,15.00
2018,08,24,08,47,15.00
2018,08,24,08,48,15.10
2018,08,24,08,49,15.10
2018,08,24,08,50,15.20
2018,08,24,08,51,15.20
2018,08,24,08,52,15.30
2018,08,24,08,53,15.30
2018,08,24,08,54,15.40
2018,08,24,08,55,15.40
2018,08,24,08,56,15.50
2018,08,24,08,57,15.60
2018,08,24,08,58,15.60
2018,08,24,08,59,15.60
2018,08,24,09,00,15.60
2018,08,24,09,01,15.60
2018,08,24,09,02,15.60
2018,08,24,09,03,15.60
2018,08,24,09,04,15.60
2018,08,24,09,05,15.60
2018,08,24,09,06,15.60
2018,08,24,09,07,15.60
2018,08,24,09,08,15.60
2018,08,24,09,09,15.60
2018,08,24,09,10,15.60
2018,08,24,09,11,15.70
2018,08,24,09,12,15.70
2018,08,24,09,13,15.70
2018,08,24,09,14,15.80
2018,08,24,09,15,15.80
2018,08,24,09,16,15.80
2018,08,24,09,17,15.80
2018,08,24,09,18,15.80
2018,08,24,09,19,15.80
2018,08,24,09,20,15.90
2018,08,24,09,21,15.90
2018,08,24,09,22,15.90
2018,08,24,09,23,16.00
2018,08,24,09,24,16.00
2018,08,24,09,25,16.10
2018,08,24,09,26,16.10
2018,08,24,09,27,16.10
2018,08,24,09,28,16.10
2018,08,24,09,29,16.20
2018,08,24,09,30,16.20
2018,08,24,09,31,16.30
2018,08,24,09,32,16.40
2018,08,24,09,33,16.40
2018,08,24,09,34,16.50
2018,08,24,09,35,16.50
2018,08,24,09,36,16.60
2018,08,24,09,37,16.60
2018,08,24,09,38,16.60
2018,08,24,09,39,16.60
2018,08,24,09,40,16.60
2018,08,24,09,41,16.60
2018,08,24,09,42,16.60
2018,08,24,09,43,16.60
2018,08,24,09,44,16.60
2018,08,24,09,45,16.60
2018,08,24,09,46,16.60
2018,08,24,09,47,16.60
2018,08,24,09,48,16.70
2018,08,24,09,49,16.70
2018,08,24,09,50,16.80
2018,08,24,09,51,16.80
2018,08,24,09,52,16.80
2018,08,24,09,53,16.90
2018,08,24,09,54,16.90
2018,08,24,09,55,16.90
2018,08,24,09,56,17.00
2018,08,24,09,57,17.00
2018,08,24,09,58,17.00
2018,08,24,09,59,17.00
2018,08,24,10,00,17.10
2018,08,24,10,01,17.10
2018,08,24,10,02,17.10
2018,08,24,10,03,17.10
2018,08,24,10,04,17.10
2018,08,24,10,05,17.20
2018,08,24,10,06,17.20
2018,08,24,10,07,17.30
2018,08,24,10,08,17.30
2018,08,24,10,09,17.30
2018,08,24,10,10,17.30
2018,08,24,10,11,17.30
2018,08,24,10,12,17.30
2018,08,24,10,13,17.30
2018,08,24,10,14,17.30
2018,08,24,10,15,17.30
2018,08,24,10,16,17.30
2018,08,24,10,17,17.40
2018,08,24,10,18,17.40
2018,08,24,10,19,17.40
2018,08,24,10,20,17.40
2018,08,24,10,21,17.50
2018,08,24,10,22,17.50
2018,08,24,10,23,17.60
2018,08,24,10,24,17.60
2018,08,24,10,25,17.60
2018,08,24,10,26,17.70
2018,08,24,10,27,17.80
2018,08,24,10,28,17.90
2018,08,24,10,29,17.90
2018,08,24,10,30,18.00
2018,08,24,10,31,18.00
2018,08,24,10,32,17.90
2018,08,24,10,33,17.90
2018,08,24,10,34,17.90
2018,08,24,10,35,18.00
2018,08,24,10,36,18.10
2018,08,24,10,37,18.10
2018,08,24,10,38,18.20
2018,08,24,10,39,18.20
2018,08,24,10,40,18.20
2018,08,24,10,41,18.20
2018,08,24,10,42,18.20
2018,08,24,10,43,18.20
2018,08,24,10,44,18.20
2018,08,24,10,45,18.30
2018,08,24,10,46,18.30
2018,08,24,10,47,18.30
2018,08,24,10,48,18.40
2018,08,24,10,49,18.50
2018,08,24,10,50,18.60
2018,08,24,10,51,18.60
2018,08,24,10,52,18.60
2018,08,24,10,53,18.70
2018,08,24,10,54,18.70
2018,08,24,10,55,18.70
2018,08,24,10,56,18.70
2018,08,24,10,57,18.60
2018,08,24,10,58,18.60
2018,08,24,10,59,18.60
2018,08,24,11,00,18.60
2018,08,24,11,01,18.60
2018,08,24,11,02,18.60
2018,08,24,11,03,18.70
2018,08,24,11,04,18.60
2018,08,24,11,05,18.60
2018,08,24,11,06,18.60
2018,08,24,11,07,18.60
2018,08,24,11,08,18.60
2018,08,24,11,09,18.60
2018,08,24,11,10,18.50
2018,08,24,11,11,18.50
2018,08,24,11,12,18.40
2018,08,24,11,13,18.30
2018,08,24,11,14,18.40
2018,08,24,11,15,18.50
2018,08,24,11,16,18.60
2018,08,24,11,17,18.70
2018,08,24,11,18,18.80
2018,08,24,11,19,18.90
2018,08,24,11,20,19.00
2018,08,24,11,21,19.00
2018,08,24,11,22,18.90
2018,08,24,11,23,18.90
2018,08,24,11,24,18.80
2018,08,24,11,25,18.70
2018,08,24,11,26,18.70
2018,08,24,11,27,18.60
2018,08,24,11,28,18.60
2018,08,24,11,29,18.60
2018,08,24,11,30,18.70
2018,08,24,11,31,18.70
2018,08,24,11,32,18.70
2018,08,24,11,33,18.70
2018,08,24,11,34,18.80
2018,08,24,11,35,18.80
2018,08,24,11,36,18.80
2018,08,24,11,37,18.80
2018,08,24,11,38,18.80
2018,08,24,11,39,18.80
2018,08,24,11,40,18.80
2018,08,24,11,41,18.80
2018,08,24,11,42,18.80
2018,08,24,11,43,18.70
2018,08,24,11,44,18.80
2018,08,24,11,45,18.80
2018,08,24,11,46,18.90
2018,08,24,11,47,18.90
2018,08,24,11,48,18.90
2018,08,24,11,49,18.90
2018,08,24,11,50,18.80
2018,08,24,11,51,18.80
2018,08,24,11,52,18.80
2018,08,24,11,53,18.90
2018,08,24,11,54,18.90
2018,08,24,11,55,19.00
2018,08,24,11,56,19.00
2018,08,24,11,57,19.00
2018,08,24,11,58,19.00
2018,08,24,11,59,19.00
2018,08,24,12,00,19.00
2018,08,24,12,01,19.00
2018,08,24,12,02,19.00
2018,08,24,12,03,19.00
2018,08,24,12,04,19.10
2018,08,24,12,05,19.10
2018,08,24,12,06,19.20
2018,08,24,12,07,19.20
2018,08,24,12,08,19.20
2018,08,24,12,09,19.10
2018,08,24,12,10,19.00
2018,08,24,12,11,19.00
2018,08,24,12,12,19.00
2018,08,24,12,13,19.00
2018,08,24,12,14,19.00
2018,08,24,12,15,19.10
2018,08,24,12,16,19.10
2018,08,24,12,17,19.10
2018,08,24,12,18,19.10
2018,08,24,12,19,19.10
2018,08,24,12,20,19.20
2018,08,24,12,21,19.20
2018,08,24,12,22,19.20
2018,08,24,12,23,19.20
2018,08,24,12,24,19.10
2018,08,24,12,25,19.00
2018,08,24,12,26,19.00
2018,08,24,12,27,19.00
2018,08,24,12,28,19.10
2018,08,24,12,29,19.20
2018,08,24,12,30,19.30
2018,08,24,12,31,19.30
2018,08,24,12,32,19.20
2018,08,24,12,33,19.30
2018,08,24,12,34,19.20
2018,08,24,12,35,19.20
2018,08,24,12,36,19.20
2018,08,24,12,37,19.20
2018,08,24,12,38,19.20
2018,08,24,12,39,19.30
2018,08,24,12,40,19.40
2018,08,24,12,41,19.40
2018,08,24,12,42,19.50
2018,08,24,12,43,19.50
2018,08,24,12,44,19.60
2018,08,24,12,45,19.60
2018,08,24,12,46,19.60
2018,08,24,12,47,19.50
2018,08,24,12,48,19.50
2018,08,24,12,49,19.50
2018,08,24,12,50,19.60
2018,08,24,12,51,19.60
2018,08,24,12,52,19.60
2018,08,24,12,53,19.60
2018,08,24,12,54,19.50
2018,08,24,12,55,19.50
2018,08,24,12,56,19.60
2018,08,24,12,57,19.60
2018,08,24,12,58,19.60
2018,08,24,12,59,19.70
2018,08,24,13,00,19.80
2018,08,24,13,01,19.80
2018,08,24,13,02,19.80
2018,08,24,13,03,19.80
2018,08,24,13,04,19.70
2018,08,24,13,05,19.70
2018,08,24,13,06,19.60
2018,08,24,13,07,19.60
2018,08,24,13,08,19.60
2018,08,24,13,09,19.60
2018,08,24,13,10,19.60
2018,08,24,13,11,19.60
2018,08,24,13,12,19.70
2018,08,24,13,13,19.70
2018,08,24,13,14,19.70
2018,08,24,13,15,19.70
2018,08,24,13,16,19.70
2018,08,24,13,17,19.80
2018,08,24,13,18,19.90
2018,08,24,13,19,19.90
2018,08,24,13,20,19.90
2018,08,24,13,21,19.90
2018,08,24,13,22,19.80
2018,08,24,13,23,19.70
2018,08,24,13,24,19.70
2018,08,24,13,25,19.70
2018,08,24,13,26,19.70
2018,08,24,13,27,19.70
2018,08,24,13,28,19.70
2018,08,24,13,29,19.80
2018,08,24,13,30,19.90
2018,08,24,13,31,20.00
2018,08,24,13,32,20.10
2018,08,24,13,33,20.30
2018,08,24,13,34,20.30
2018,08,24,13,35,20.40
2018,08,24,13,36,20.50
2018,08,24,13,37,20.50
2018,08,24,13,38,20.40
2018,08,24,13,39,20.40
2018,08,24,13,40,20.40
2018,08,24,13,41,20.40
2018,08,24,13,42,20.40
2018,08,24,13,43,20.40
2018,08,24,13,44,20.50
2018,08,24,13,45,20.50
2018,08,24,13,46,20.50
2018,08,24,13,47,20.50
2018,08,24,13,48,20.50
2018,08,24,13,49,20.50
2018,08,24,13,50,20.60
2018,08,24,13,51,20.70
2018,08,24,13,52,20.80
2018,08,24,13,53,20.80
2018,08,24,13,54,20.70
2018,08,24,13,55,20.70
2018,08,24,13,56,20.70
2018,08,24,13,57,20.70
2018,08,24,13,58,20.80
2018,08,24,13,59,20.80
2018,08,24,14,00,20.80
2018,08,24,14,01,20.90
2018,08,24,14,02,20.90
2018,08,24,14,03,20.90
2018,08,24,14,04,20.80
2018,08,24,14,05,20.80
2018,08,24,14,06,20.70
2018,08,24,14,07,20.70
2018,08,24,14,08,20.80
2018,08,24,14,09,20.90
2018,08,24,14,10,21.00
2018,08,24,14,11,21.20
2018,08,24,14,12,21.30
2018,08,24,14,13,21.30
2018,08,24,14,14,21.30
2018,08,24,14,15,21.30
2018,08,24,14,16,21.40
2018,08,24,14,17,21.40
2018,08,24,14,18,21.40
2018,08,24,14,19,21.40
2018,08,24,14,20,21.40
2018,08,24,14,21,21.40
2018,08,24,14,22,21.40
2018,08,24,14,23,21.40
2018,08,24,14,24,21.50
2018,08,24,14,25,21.60
2018,08,24,14,26,21.70
2018,08,24,14,27,21.80
2018,08,24,14,28,21.80
2018,08,24,14,29,21.90
2018,08,24,14,30,21.90
2018,08,24,14,31,21.90
2018,08,24,14,32,21.90
2018,08,24,14,33,21.80
2018,08,24,14,34,21.80
2018,08,24,14,35,21.80
2018,08,24,14,36,21.70
2018,08,24,14,37,21.70
2018,08,24,14,38,21.60
2018,08,24,14,39,21.50
2018,08,24,14,40,21.40
2018,08,24,14,41,21.30
2018,08,24,14,42,21.20
2018,08,24,14,43,21.10
2018,08,24,14,44,21.10
2018,08,24,14,45,21.10
2018,08,24,14,46,21.10
2018,08,24,14,47,21.10
2018,08,24,14,48,21.10
2018,08,24,14,49,21.10
2018,08,24,14,50,21.10
2018,08,24,14,51,21.10
2018,08,24,14,52,21.10
2018,08,24,14,53,21.10
2018,08,24,14,54,21.10
2018,08,24,14,55,21.10
2018,08,24,14,56,21.10
2018,08,24,14,57,21.20
2018,08,24,14,58,21.20
2018,08,24,14,59,21.30
2018,08,24,15,00,21.40
2018,08,24,15,01,21.50
2018,08,24,15,02,21.60
2018,08,24,15,03,21.60
2018,08,24,15,04,21.60
2018,08,24,15,05,21.70
2018,08,24,15,06,21.60
2018,08,24,15,07,21.60
2018,08,24,15,08,21.50
2018,08,24,15,09,21.40
2018,08,24,15,10,21.40
2018,08,24,15,11,21.30
2018,08,24,15,12,21.30
2018,08,24,15,13,21.20
2018,08,24,15,14,21.20
2018,08,24,15,15,21.10
2018,08,24,15,16,21.10
2018,08,24,15,17,21.10
2018,08,24,15,18,21.00
2018,08,24,15,19,21.00
2018,08,24,15,20,21.00
2018,08,24,15,21,21.00
2018,08,24,15,22,21.00
2018,08,24,15,23,21.00
2018,08,24,15,24,21.00
2018,08,24,15,25,21.00
2018,08,24,15,26,21.00
2018,08,24,15,27,21.10
2018,08,24,15,28,21.10
2018,08,24,15,29,21.20
2018,08,24,15,30,21.20
2018,08,24,15,31,21.20
2018,08,24,15,32,21.20
2018,08,24,15,33,21.30
2018,08,24,15,34,21.30
2018,08,24,15,35,21.30
2018,08,24,15,36,21.30
2018,08,24,15,37,21.30
2018,08,24,15,38,21.30
2018,08,24,15,39,21.30
2018,08,24,15,40,21.20
2018,08,24,15,41,21.20
2018,08,24,15,42,21.20
2018,08,24,15,43,21.20
2018,08,24,15,44,21.10
2018,08,24,15,45,21.10
2018,08,24,15,46,21.10
2018,08,24,15,47,21.20
2018,08,24,15,48,21.20
2018,08,24,15,49,21.20
2018,08,24,15,50,21.20
2018,08,24,15,51,21.20
2018,08,24,15,52,21.20
2018,08,24,15,53,21.20
2018,08,24,15,54,21.20
2018,08,24,15,55,21.20
2018,08,24,15,56,21.20
2018,08,24,15,57,21.20
2018,08,24,15,58,21.30
2018,08,24,15,59,21.30
2018,08,24,16,00,21.30
2018,08,24,16,01,21.30
2018,08,24,16,02,21.20
2018,08,24,16,03,21.20
2018,08,24,16,04,21.20
2018,08,24,16,05,21.10
2018,08,24,16,06,21.10
2018,08,24,16,07,21.10
2018,08,24,16,08,21.10
2018,08,24,16,09,21.10
2018,08,24,16,10,21.10
2018,08,24,16,11,21.10
2018,08,24,16,12,21.10
2018,08,24,16,13,21.10
2018,08,24,16,14,21.00
2018,08,24,16,15,21.00
2018,08,24,16,16,21.00
2018,08,24,16,17,20.90
2018,08,24,16,18,21.00
2018,08,24,16,19,21.00
2018,08,24,16,20,21.00
2018,08,24,16,21,21.10
2018,08,24,16,22,21.10
2018,08,24,16,23,21.10
2018,08,24,16,24,21.10
2018,08,24,16,25,21.20
2018,08,24,16,26,21.20
2018,08,24,16,27,21.20
2018,08,24,16,28,21.20
2018,08,24,16,29,21.20
2018,08,24,16,30,21.20
2018,08,24,16,31,21.20
2018,08,24,16,32,21.20
2018,08,24,16,33,21.20
2018,08,24,16,34,21.20
2018,08,24,16,35,21.20
2018,08,24,16,36,21.20
2018,08,24,16,37,21.10
2018,08,24,16,38,21.10
2018,08,24,16,39,21.00
2018,08,24,16,40,21.00
2018,08,24,16,41,20.90
2018,08,24,16,42,20.90
2018,08,24,16,43,20.90
2018,08,24,16,44,20.90
2018,08,24,16,45,20.80
2018,08,24,16,46,20.80
2018,08,24,16,47,20.80
2018,08,24,16,48,20.80
2018,08,24,16,49,20.80
2018,08,24,16,50,20.80
2018,08,24,16,51,20.70
2018,08,24,16,52,20.70
2018,08,24,16,53,20.70
2018,08,24,16,54,20.70
2018,08,24,16,55,20.70
2018,08,24,16,56,20.70
2018,08,24,16,57,20.70
2018,08,24,16,58,20.80
2018,08,24,16,59,20.80
2018,08,24,17,00,20.80
2018,08,24,17,01,20.80
2018,08,24,17,02,20.80
2018,08,24,17,03,20.80
2018,08,24,17,04,20.80
2018,08,24,17,05,20.70
2018,08,24,17,06,20.70
2018,08,24,17,07,20.80
2018,08,24,17,08,20.80
2018,08,24,17,09,20.80
2018,08,24,17,10,20.80
2018,08,24,17,11,20.80
2018,08,24,17,12,20.80
2018,08,24,17,13,20.80
2018,08,24,17,14,20.80
2018,08,24,17,15,20.70
2018,08,24,17,16,20.70
2018,08,24,17,17,20.70
2018,08,24,17,18,20.70
2018,08,24,17,19,20.70
2018,08,24,17,20,20.70
2018,08,24,17,21,20.70
2018,08,24,17,22,20.80
2018,08,24,17,23,20.80
2018,08,24,17,24,20.90
2018,08,24,17,25,20.90
2018,08,24,17,26,20.90